Theta_e
350 349 340 331 335 338 337 339 342 347 347 347 347 346 345 342 341 339 335 332 332 333 337 338 337 337 339 341 340 339 338 338 338 340 342 342 342 342 342 341 341 340 339 338 337 338 337 337 336 335 335 335 335 335 334 333 334 335 334 336 337 338 338 338 339 338 337 337 338 340 340 340 340 340 340 340 339 339 339 339 338 338 338 338 338
350 347 343 333 335 338 337 340 342 347 348 348 348 347 345 342 341 338 335 332 332 335 339 339 338 338 340 341 340 339 338 338 340 342 342 341 342 342 342 341 340 338 337 338 338 338 337 336 336 336 335 336 335 334 334 333 335 334 334 336 337 338 337 337 338 337 337 337 338 338 339 340 340 340 340 340 339 338 338 339 339 337 338 338 338
348 346 345 337 335 337 337 341 344 348 348 349 348 347 345 342 341 337 335 333 334 337 339 339 338 339 339 340 337 337 337 340 342 342 341 340 342 342 342 340 338 337 338 339 338 337 337 337 336 336 335 335 335 334 333 334 335 334 333 334 336 337 335 336 336 335 335 336 337 337 337 338 338 338 338 338 337 338 338 338 338 338 339 338 338
348 345 345 341 336 335 336 342 345 348 349 349 348 346 345 343 341 337 335 333 336 338 338 337 337 339 339 338 335 336 339 341 342 340 339 340 342 342 341 339 337 338 339 338 338 338 337 338 337 335 333 332 332 331 329 331 334 333 332 332 334 335 334 333 334 334 334 336 336 337 337 338 338 337 337 337 337 337 337 337 337 337 337 337 337
347 344 344 344 341 339 338 343 346 348 349 348 347 346 344 343 340 336 335 335 338 339 337 335 336 338 337 336 334 338 340 341 339 338 339 340 341 341 340 337 337 338 339 338 338 338 338 338 337 336 334 332 329 327 324 325 328 330 331 332 333 334 333 333 333 333 334 335 335 337 337 337 338 337 337 338 337 336 336 335 336 335 335 335 335
346 344 344 344 344 344 342 345 346 347 347 347 347 345 344 341 337 336 335 337 339 338 335 336 338 336 334 334 334 337 338 338 337 336 339 340 340 339 338 338 339 339 338 338 337 337 339 337 337 338 337 336 332 328 325 323 324 328 330 331 332 332 331 331 332 333 333 333 334 335 335 336 338 338 337 336 336 335 335 334 335 334 334 333 334
345 344 344 343 343 344 344 345 345 346 346 346 345 344 343 340 337 336 336 339 338 336 336 339 339 333 332 334 334 336 338 339 337 336 339 340 338 338 338 339 340 338 338 337 336 336 337 336 338 338 338 338 336 333 327 323 322 326 329 330 331 331 330 330 331 332 333 333 333 333 334 337 337 336 335 335 334 334 333 333 333 333 333 332 332
345 343 343 341 343 344 344 344 343 344 344 344 344 342 341 339 337 337 339 338 336 337 340 341 338 333 333 335 336 338 340 341 339 337 338 339 337 338 339 341 340 338 338 338 338 337 337 337 338 338 338 337 336 335 331 326 321 322 326 329 331 330 329 330 332 331 332 332 332 333 334 335 335 335 334 335 334 334 333 332 331 331 331 331 331
344 343 342 341 344 343 342 343 342 341 343 343 342 341 340 339 338 338 337 336 337 341 342 341 336 335 335 337 339 340 341 340 339 338 338 340 338 339 340 342 342 340 340 340 341 340 339 339 340 339 338 338 336 335 333 329 322 320 322 325 328 328 329 330 332 332 332 332 332 332 332 333 333 333 333 333 333 333 333 332 330 329 330 331 330
344 344 342 342 343 341 341 342 342 342 343 343 343 343 341 340 338 337 335 336 340 342 342 339 336 335 337 339 340 340 340 338 338 337 337 339 339 340 341 342 342 341 341 340 340 340 341 340 340 340 338 338 337 336 334 331 323 319 321 323 325 328 330 332 333 332 331 331 333 333 332 332 332 332 332 333 332 331 331 330 330 330 330 330 329
344 344 342 343 342 339 340 342 342 343 343 343 343 343 342 340 337 336 336 338 340 340 339 337 335 336 338 339 339 339 339 338 338 338 338 339 339 341 341 342 342 341 341 339 340 340 340 340 340 339 338 337 336 335 334 332 324 319 324 327 328 330 332 333 334 332 330 330 331 332 331 331 332 332 331 332 331 330 329 328 329 329 329 329 329
344 344 343 343 341 339 340 341 340 341 342 342 342 341 341 339 337 338 339 339 337 337 337 336 336 338 339 338 338 338 337 339 340 340 340 340 340 340 341 341 341 341 340 340 340 340 340 339 338 336 335 334 334 335 333 333 326 320 327 330 331 332 332 334 335 332 331 331 331 331 331 331 332 331 331 331 330 329 329 329 329 329 329 329 328
344 344 343 343 342 339 338 339 340 340 341 341 342 341 340 339 339 339 338 336 335 337 338 338 339 339 339 338 338 337 337 339 340 341 341 341 340 340 341 341 340 341 340 340 340 339 339 337 335 333 334 333 334 335 333 332 325 320 328 331 330 331 332 334 334 331 331 332 332 331 331 330 330 330 330 330 329 329 329 329 330 329 328 327 327
344 344 343 342 342 339 338 339 340 338 339 340 341 340 339 339 339 339 337 337 338 340 341 340 339 339 340 339 338 338 337 338 338 340 340 340 339 339 341 341 340 340 340 339 338 338 337 335 333 333 334 334 333 334 332 329 324 322 327 330 330 331 333 334 332 332 332 332 332 331 330 329 328 329 330 330 330 329 329 329 328 327 327 327 327
345 344 341 342 341 340 338 337 337 335 335 337 338 338 338 339 340 339 337 338 339 341 342 341 340 340 341 339 339 339 339 337 336 336 338 339 339 339 340 340 339 339 339 338 337 337 335 333 333 333 333 333 332 330 329 327 323 323 327 331 331 332 335 335 332 332 332 332 331 330 329 329 328 329 330 329 329 328 328 327 327 327 327 327 327
345 343 341 342 341 340 338 336 334 332 332 333 334 335 336 337 339 339 338 339 339 340 341 342 342 341 340 340 340 340 339 338 336 333 334 335 337 338 339 338 338 337 337 337 336 335 333 333 334 334 333 332 331 328 327 327 325 324 328 332 332 333 335 334 333 333 332 331 330 329 329 329 328 328 328 328 327 327 327 327 327 327 327 327 327
345 342 341 341 341 341 340 339 335 331 331 331 332 333 334 335 335 336 337 337 338 339 340 342 342 340 339 339 339 339 338 337 337 335 333 332 332 335 338 338 337 337 336 335 334 333 332 333 333 333 333 331 330 328 327 327 326 325 328 331 332 333 333 333 333 333 332 332 331 329 329 328 327 327 328 327 327 327 327 327 326 326 327 327 327
344 342 342 342 342 341 342 340 336 334 333 332 333 332 331 332 333 335 336 337 338 339 340 341 340 339 337 336 338 338 337 336 337 336 335 333 330 331 334 336 336 336 335 334 333 332 332 333 333 334 333 332 331 329 328 327 326 327 330 331 331 332 333 333 333 333 332 331 330 329 328 328 328 328 328 328 327 327 327 327 327 327 327 326 327
343 342 342 342 342 340 342 341 338 339 337 335 334 333 331 331 334 336 337 338 339 339 339 339 339 338 335 335 336 337 336 336 336 335 335 334 332 330 330 332 334 334 334 334 333 331 332 333 333 333 332 332 331 329 328 327 328 331 332 331 332 332 333 333 332 332 331 330 329 328 328 328 328 328 328 328 328 328 327 327 327 327 326 326 326
343 343 342 342 341 341 341 341 341 341 340 338 336 334 333 333 335 337 338 338 338 338 339 339 338 336 334 334 335 336 336 334 334 334 335 334 334 332 329 330 333 332 332 332 331 331 332 333 333 333 332 332 332 330 329 328 331 332 332 332 332 332 333 332 331 331 330 329 328 328 328 327 326 327 327 328 328 328 327 327 326 326 326 326 326
344 343 342 341 341 341 340 341 342 341 341 340 337 336 334 333 335 336 337 337 337 337 337 337 335 334 334 334 335 337 337 335 334 334 335 335 336 334 331 331 332 331 331 330 329 331 331 332 333 333 333 332 332 331 329 329 332 332 332 332 332 333 332 331 332 331 329 327 327 326 327 327 326 327 327 327 327 327 326 326 326 326 326 325 325
344 344 342 341 340 341 340 341 342 342 341 340 338 336 333 334 335 335 336 336 336 336 336 336 333 334 334 334 335 336 337 338 337 336 335 336 336 335 333 332 332 331 330 330 329 330 330 331 333 333 333 332 332 332 330 330 332 332 332 333 333 333 332 332 332 331 330 327 326 325 325 327 327 327 327 327 326 326 325 325 325 325 325 325 324
344 344 343 342 341 340 341 342 342 342 340 339 339 337 334 337 337 336 337 336 336 336 337 337 336 337 335 334 336 336 336 338 336 336 337 337 336 336 335 333 333 331 330 330 328 329 330 330 332 333 333 333 335 335 334 332 333 333 334 334 334 333 332 332 331 331 331 330 329 327 325 326 327 327 327 326 325 324 322 323 324 324 325 325 324
345 344 344 342 341 341 342 342 341 341 339 339 339 337 338 339 338 338 338 338 337 338 339 339 338 336 336 336 337 336 336 336 336 338 338 337 337 333 331 331 331 330 329 330 329 329 329 330 332 333 334 335 337 336 334 334 335 335 335 334 334 333 332 331 331 332 332 332 331 330 328 328 328 328 327 325 324 323 323 324 322 320 321 322 323
345 345 345 344 343 341 342 343 341 340 339 339 338 338 340 339 339 339 339 339 338 340 340 339 338 336 336 336 336 336 336 336 337 337 336 336 335 330 327 329 330 329 330 331 330 329 329 331 331 333 334 335 337 336 333 334 335 336 335 334 333 333 332 331 331 331 332 333 332 331 331 329 327 328 327 326 325 325 325 324 319 317 319 322 323
344 345 345 344 343 341 343 343 341 340 340 339 338 339 340 340 340 339 340 341 339 341 340 339 339 338 337 336 335 336 337 337 336 335 334 333 333 331 332 332 332 331 332 333 331 330 331 332 332 332 333 334 335 335 334 334 334 334 334 334 333 333 333 332 331 331 333 333 333 332 330 329 328 327 327 326 326 326 326 324 322 321 322 323 323
344 345 345 343 343 342 343 343 341 341 340 339 340 340 339 341 341 341 341 342 341 341 340 339 339 337 336 336 335 335 336 336 335 334 333 333 332 333 334 333 332 332 333 332 332 332 332 332 332 331 333 334 333 333 334 334 334 333 334 334 334 334 333 334 332 331 333 333 332 330 329 328 326 327 328 327 326 326 325 324 323 323 323 323 323
345 345 344 343 343 343 342 342 341 342 340 339 340 339 337 340 341 341 340 339 339 339 338 338 337 336 335 336 335 334 334 334 335 335 334 333 333 333 334 333 333 332 332 332 332 333 333 332 332 332 332 333 333 333 333 333 333 333 333 334 333 334 333 334 333 332 333 334 332 329 327 326 325 327 327 326 326 326 325 325 324 324 324 324 321
345 344 344 344 343 342 342 341 341 342 341 339 340 338 337 339 338 338 338 337 337 337 337 337 337 336 336 336 334 333 333 332 334 335 334 334 334 334 334 334 334 333 333 333 333 333 333 333 332 333 332 333 333 333 333 333 333 333 333 333 333 334 334 334 333 333 333 333 333 328 325 326 327 327 327 327 327 326 326 326 325 326 327 325 322
345 345 346 345 343 341 342 342 341 341 340 339 339 337 337 338 338 338 338 337 336 337 337 336 336 336 336 336 334 334 333 333 334 333 334 335 335 336 336 335 335 334 334 334 333 333 333 333 333 333 332 333 333 333 333 333 333 333 332 332 332 333 333 333 333 333 333 333 332 329 326 327 328 328 328 328 327 326 326 326 327 327 329 328 327
345 346 345 345 343 342 342 342 341 341 339 339 339 338 337 336 337 338 337 336 336 336 337 336 336 336 336 337 336 335 334 334 334 334 335 335 336 337 336 336 335 335 335 334 333 333 333 334 334 333 332 332 332 332 333 333 333 333 333 332 332 332 332 333 332 332 333 332 331 329 328 327 328 329 329 327 326 326 327 328 328 329 330 330 330
345 345 344 343 343 343 342 341 341 339 338 339 339 338 337 336 337 337 336 336 336 336 336 336 335 335 337 338 337 336 335 335 335 334 335 336 337 337 336 336 335 336 335 334 334 334 334 335 334 334 333 332 332 332 332 333 332 332 332 332 332 332 332 332 331 331 332 332 331 329 328 328 328 328 327 327 328 328 329 329 330 330 330 330 331
344 342 340 341 342 343 342 341 339 338 339 339 339 338 337 337 338 337 336 337 336 335 336 337 336 335 336 338 337 336 336 336 336 335 335 336 336 336 336 336 335 335 335 335 335 335 336 336 335 334 333 332 332 332 332 333 332 332 333 332 331 332 331 331 331 331 331 331 331 330 329 329 328 327 326 327 329 330 330 330 330 330 330 330 331
342 339 338 341 342 342 342 340 339 339 339 338 338 338 337 338 338 337 337 338 337 336 336 336 336 336 337 338 337 335 335 335 336 336 335 336 336 335 336 335 335 335 335 336 335 335 335 334 334 334 333 332 333 333 333 332 332 333 334 332 332 332 331 331 331 331 330 330 330 330 330 329 329 329 328 327 329 329 329 329 329 329 329 330 330
340 339 340 340 340 342 341 340 339 338 338 339 338 337 337 338 337 336 336 337 337 336 336 336 336 336 337 338 338 336 335 334 336 337 337 336 335 335 336 336 335 335 335 335 335 334 334 333 334 333 332 332 333 333 332 332 332 333 333 332 332 332 331 331 331 331 330 331 330 329 329 329 329 329 329 328 327 328 328 328 328 329 329 329 330
340 339 340 339 339 340 340 339 339 338 339 339 338 338 337 337 337 336 336 337 337 336 336 337 336 336 336 337 338 337 336 335 336 337 337 336 335 335 336 336 336 335 335 336 335 334 334 333 333 332 332 332 333 333 332 332 332 332 333 332 331 331 332 331 331 331 330 330 330 329 330 330 329 328 328 328 327 327 328 328 328 328 328 328 329
340 340 340 340 339 339 339 339 338 339 338 337 338 337 336 336 337 336 336 337 336 335 336 336 335 335 336 337 338 338 337 337 337 337 337 336 334 335 336 336 335 334 336 336 335 334 334 334 333 332 332 332 333 333 332 332 333 333 333 331 330 330 331 330 330 330 329 330 330 329 329 330 330 329 328 328 328 328 328 328 327 327 327 328 329
340 341 340 340 339 338 339 339 338 338 337 337 337 336 335 336 336 336 336 336 336 335 335 335 335 336 336 337 338 338 337 338 338 338 338 336 334 336 337 336 334 334 335 335 334 334 334 334 334 333 332 332 333 333 332 332 333 334 332 331 331 331 331 331 331 330 330 330 330 329 329 329 330 329 329 329 329 329 328 328 327 326 325 325 326
340 340 340 339 339 337 338 339 339 338 336 336 336 335 335 335 336 336 336 336 335 334 334 334 335 335 336 337 338 338 338 338 338 338 339 336 335 336 337 337 335 334 335 335 334 334 335 336 334 334 334 334 333 333 332 331 331 332 332 331 332 332 332 332 331 330 330 330 330 330 330 330 330 329 329 330 330 329 328 328 328 325 320 319 322
339 340 340 340 339 337 338 338 338 338 336 335 335 334 334 334 335 335 335 335 334 334 335 335 335 336 336 337 338 338 337 338 337 337 338 336 336 336 337 337 335 334 335 335 334 334 335 337 336 335 335 334 333 333 332 332 331 331 331 330 330 330 331 331 329 330 330 330 330 330 330 330 330 330 330 330 329 329 329 327 328 325 321 319 321
339 339 340 340 340 338 337 337 338 337 335 334 333 332 333 333 335 335 334 335 334 335 335 335 336 336 336 336 337 337 337 337 337 337 337 336 336 337 337 337 336 335 334 334 335 336 335 336 336 336 335 334 333 333 332 332 332 332 331 331 330 330 330 330 330 330 330 330 331 330 330 330 329 329 329 329 329 328 328 327 326 326 325 324 324
338 338 339 340 340 338 337 337 337 337 336 334 332 331 332 333 334 335 334 334 335 336 335 334 335 336 336 337 336 336 337 337 336 337 337 336 336 336 337 337 336 335 335 334 335 336 335 335 336 335 335 334 334 333 332 332 332 332 332 332 331 330 331 331 331 331 330 330 331 331 330 330 329 329 329 328 328 327 327 326 326 326 327 326 326
338 338 339 339 339 338 337 337 337 337 336 334 331 331 332 333 334 334 334 333 334 335 334 333 334 335 336 337 337 337 337 336 336 336 336 336 336 336 336 336 336 336 335 335 335 336 335 336 335 334 334 334 333 333 332 331 332 332 331 331 330 330 331 331 330 330 330 330 330 330 330 329 329 329 329 328 326 326 325 324 325 326 327 326 326
339 338 338 339 339 338 338 337 337 337 336 334 331 331 333 333 333 334 334 334 334 334 334 334 334 334 335 337 336 337 336 335 335 335 335 335 336 336 336 336 336 336 334 333 334 335 335 335 335 334 334 333 333 333 331 331 331 331 330 331 330 330 330 330 330 331 330 330 329 329 328 328 328 328 327 326 325 324 323 323 325 326 326 326 325
339 338 338 338 338 338 338 337 337 337 336 335 332 332 334 333 333 333 333 334 333 333 334 335 335 334 335 336 336 336 336 335 335 335 334 335 336 336 336 336 336 336 334 332 333 335 335 334 334 335 334 332 332 333 332 331 330 330 330 331 331 330 329 330 331 330 330 329 328 328 327 327 328 327 325 324 322 322 321 322 324 325 325 325 324
340 338 338 338 338 338 338 336 336 337 336 335 334 333 334 333 333 332 332 333 334 335 335 335 335 334 335 336 335 335 336 336 336 334 334 335 335 336 336 335 336 336 334 333 333 334 334 333 334 334 333 333 332 332 331 331 330 330 331 331 329 330 330 330 330 330 329 328 328 327 327 327 326 324 322 321 320 320 319 320 321 323 324 324 323
340 339 338 337 338 337 336 334 334 336 335 334 334 333 333 333 333 333 333 334 335 335 334 334 334 334 335 335 334 334 335 336 336 335 335 336 336 336 335 335 335 335 335 334 333 333 333 332 333 333 333 333 333 332 331 331 332 331 331 330 329 330 330 330 330 329 329 329 328 327 327 326 322 320 320 320 319 318 317 318 319 321 322 323 323
340 339 336 334 334 334 333 332 332 334 335 334 333 333 334 333 333 335 335 334 335 335 334 333 333 333 334 333 333 334 334 334 334 334 335 335 335 335 334 334 334 334 334 334 334 333 332 332 332 332 332 332 332 332 331 332 332 331 331 330 330 330 328 329 329 329 329 329 328 327 327 325 321 318 319 318 318 317 317 316 317 317 319 321 322
340 339 334 332 332 331 330 330 331 334 335 334 333 334 334 333 334 336 335 334 336 335 333 333 333 332 332 331 332 333 333 333 333 333 333 333 333 334 334 334 334 334 334 334 334 333 332 332 331 332 333 333 332 332 331 332 331 330 330 330 330 329 329 329 329 328 329 328 327 327 327 326 322 320 318 317 317 317 315 315 314 314 315 316 318
339 338 334 333 332 330 330 330 331 333 334 334 333 334 334 332 333 335 334 334 334 333 332 332 332 331 330 331 333 333 333 333 333 333 333 332 332 333 335 335 335 335 334 333 333 333 333 333 333 334 334 332 333 332 332 332 331 330 330 330 330 329 329 330 329 328 329 328 326 327 327 326 324 321 318 317 316 316 315 314 313 313 313 313 314
338 337 334 333 333 331 331 332 332 333 333 334 334 333 332 332 333 334 334 334 333 331 330 330 330 329 330 332 334 333 333 334 334 334 333 332 332 332 333 335 335 335 334 333 334 333 333 333 334 334 333 332 333 332 331 331 331 331 330 329 329 329 329 329 329 329 330 329 327 327 326 325 324 321 318 317 316 315 315 314 313 312 312 311 311
Wind_Speed
16 19 24 25 21 20 19 20 22 25 28 27 27 26 27 27 27 27 26 26 25 26 27 26 24 21 19 17 17 16 16 15 16 16 15 15 15 15 14 14 15 14 14 14 13 14 14 14 15 15 15 14 14 13 13 15 16 13 14 16 17 17 17 19 19 19 21 21 22 22 20 20 20 20 19 19 21 21 20 19 19 19 21 20 18
20 19 22 24 23 21 20 21 22 25 27 27 27 27 27 27 28 27 27 26 25 27 27 25 23 21 18 17 16 16 16 16 17 17 16 16 15 14 14 14 14 14 14 14 14 14 14 15 15 15 15 14 14 13 13 14 14 12 13 15 16 17 18 19 19 19 21 21 22 22 22 22 22 21 20 20 21 21 21 19 19 19 20 19 18
21 19 20 23 23 22 20 22 23 25 27 27 27 27 27 28 28 27 27 26 25 28 27 25 22 20 18 18 18 17 17 17 17 16 16 16 14 13 13 14 14 15 15 14 14 14 14 15 15 15 14 14 13 13 13 13 13 12 12 15 17 19 20 20 20 19 19 19 20 22 23 23 23 22 21 21 22 22 22 20 19 19 18 18 18
20 19 20 21 22 22 21 23 24 26 27 27 27 27 28 27 27 27 27 25 26 29 28 25 21 19 18 18 19 18 18 18 17 15 16 16 14 13 13 14 15 15 14 14 14 14 14 14 15 15 15 14 13 13 12 12 11 12 14 15 19 21 21 20 20 17 17 17 18 21 21 21 22 21 21 21 21 21 21 20 19 18 17 17 17
20 21 20 20 20 21 22 24 25 26 27 27 28 28 27 27 27 28 27 26 28 29 26 23 20 18 18 19 20 19 17 16 15 15 17 16 14 13 14 15 15 15 15 14 14 14 14 14 14 14 15 15 14 14 13 11 10 12 14 15 19 20 20 18 17 16 15 15 16 18 19 20 19 20 20 19 18 19 19 19 19 18 17 16 16
20 21 21 21 20 20 23 25 26 26 27 28 28 27 27 27 28 27 27 28 29 27 24 21 19 18 18 20 19 18 16 15 14 16 17 15 14 14 14 15 15 15 15 14 14 14 13 12 12 12 13 13 13 13 13 12 11 12 13 14 17 18 17 15 12 11 11 11 11 12 15 18 19 19 17 16 16 16 17 18 18 18 17 15 15
21 21 21 20 20 22 25 25 26 27 27 28 27 27 27 28 28 27 28 29 27 25 23 21 19 18 19 20 19 18 17 15 15 16 17 15 15 15 15 15 15 15 15 15 14 13 12 11 11 11 12 12 12 12 12 13 11 11 12 13 16 17 16 14 12 9 6 6 7 10 14 15 17 18 16 16 16 14 13 14 15 17 17 16 15
20 21 20 20 20 23 26 25 26 27 27 27 27 28 27 28 28 28 29 28 26 24 22 21 20 19 19 20 19 19 17 16 15 16 17 15 15 15 14 15 15 16 15 14 13 12 11 10 10 10 10 11 11 11 11 12 11 10 11 11 14 16 16 16 15 15 11 8 8 10 12 12 13 15 16 16 15 14 14 13 13 13 15 16 15
20 20 21 20 20 24 26 25 26 26 27 28 28 27 27 27 27 27 27 26 25 23 21 21 20 19 20 20 18 17 16 16 15 17 17 16 15 15 14 14 15 15 14 12 11 11 10 9 9 9 8 9 10 10 10 11 11 10 11 11 13 16 17 17 16 14 12 12 12 12 12 13 12 13 15 14 13 13 13 15 15 13 14 16 15
20 20 20 20 21 25 27 26 26 26 27 28 27 26 26 26 25 25 25 24 22 20 20 20 20 20 20 18 17 16 16 15 15 17 18 17 16 15 13 13 14 15 13 11 10 10 9 8 8 8 8 8 8 9 9 10 11 12 15 16 17 16 14 13 14 13 11 12 12 14 16 16 14 13 13 12 12 10 10 13 15 15 15 16 16
19 20 19 20 24 27 27 27 26 26 27 27 26 25 25 25 25 24 23 21 19 19 19 19 20 20 20 18 17 16 16 16 16 18 18 17 16 14 13 12 14 15 13 11 11 9 9 9 8 7 7 6 7 8 8 10 11 14 18 18 16 13 9 9 10 11 13 13 13 14 15 16 15 14 12 13 14 13 12 13 15 15 16 16 16
20 20 19 21 24 27 28 26 27 26 26 26 24 25 25 25 24 23 21 19 19 19 19 20 20 20 20 19 18 17 18 17 15 17 18 17 15 14 13 12 14 14 12 12 12 10 9 9 8 6 5 5 5 7 8 9 11 13 15 15 14 11 10 11 10 11 14 15 15 14 14 14 13 13 13 14 15 16 16 15 15 14 15 16 16
20 20 20 22 23 26 27 25 26 25 25 24 24 25 25 24 23 21 20 20 21 20 20 20 20 20 21 19 18 18 18 16 16 17 17 16 16 15 13 13 13 13 12 11 11 10 8 8 7 5 4 5 5 7 8 9 10 12 14 13 13 11 13 15 12 12 14 15 15 15 14 14 13 13 13 13 14 15 15 15 14 14 15 15 16
20 20 20 22 21 24 26 24 25 24 23 23 24 25 25 24 22 21 21 21 21 20 19 19 19 20 20 19 19 19 17 17 17 18 17 16 15 14 13 13 13 12 11 10 10 9 7 7 6 6 5 6 7 8 9 10 10 12 14 11 9 9 11 14 13 14 15 15 15 15 15 14 14 13 12 13 13 13 14 15 15 15 15 15 16
21 20 20 21 21 22 23 24 25 24 23 24 25 24 24 23 22 21 21 20 19 18 17 18 18 19 19 20 20 18 16 16 16 16 17 16 15 14 12 12 11 11 10 9 8 8 7 7 7 7 7 8 9 10 11 12 12 12 11 9 9 9 11 11 11 13 15 15 15 15 15 15 14 12 11 12 12 13 14 14 14 14 15 15 15
21 21 21 20 21 21 21 23 24 24 24 24 24 24 24 23 22 22 21 19 18 17 17 17 19 19 19 19 18 17 15 15 15 15 15 14 14 13 12 10 9 9 9 8 8 8 8 7 7 8 9 10 10 11 12 13 12 11 10 10 12 13 14 14 12 12 13 14 15 15 15 14 13 12 12 13 13 13 13 13 13 14 14 14 13
21 20 21 21 21 21 20 21 23 24 23 24 24 24 24 23 23 22 21 19 17 17 17 18 19 19 19 18 17 16 15 14 14 14 13 13 13 13 13 11 9 10 9 8 8 9 9 7 7 8 10 11 11 12 13 14 14 14 15 15 17 17 18 16 13 13 14 15 15 15 14 13 13 13 14 14 13 13 13 13 13 13 12 13 13
20 20 22 22 21 21 21 21 22 23 22 24 24 24 24 24 24 22 21 18 17 17 17 18 18 18 18 17 17 16 14 13 12 11 12 13 12 13 14 12 10 10 10 9 9 10 9 8 7 8 10 11 11 13 13 15 17 19 19 18 18 18 18 16 13 14 14 14 15 14 14 14 14 13 13 13 13 13 13 12 12 12 12 12 13
19 20 22 22 22 21 21 22 22 21 21 22 22 22 23 24 22 20 19 18 18 18 18 18 18 18 17 16 15 15 14 12 10 10 12 13 12 12 13 13 11 11 12 10 10 10 10 8 8 9 11 11 11 12 13 15 18 19 17 16 15 15 15 13 12 13 14 14 15 15 13 13 13 13 13 13 13 13 12 12 11 12 12 11 11
18 20 21 21 22 22 22 21 21 21 20 20 21 20 21 22 20 18 18 18 18 18 19 19 18 18 16 15 14 14 13 12 10 10 12 13 12 13 13 13 12 12 12 11 11 11 10 9 8 8 11 12 11 11 12 16 18 17 17 16 15 13 12 11 12 13 13 14 14 14 12 11 13 13 12 12 12 12 11 11 11 11 11 10 10
17 19 20 20 21 21 21 21 20 21 20 19 21 20 20 21 19 18 18 18 18 19 19 18 17 16 15 15 14 15 14 12 12 12 12 12 12 13 13 12 12 12 11 12 12 11 11 10 8 8 10 13 12 12 12 15 17 16 16 15 14 11 10 10 12 13 13 13 13 12 11 12 12 12 12 11 11 11 11 11 11 10 10 10 10
17 17 18 19 20 20 20 20 19 19 19 19 19 20 21 20 19 19 18 17 18 18 18 17 17 16 15 15 15 16 14 12 12 13 13 12 12 12 12 12 12 12 11 12 13 11 11 11 9 8 9 12 13 12 11 13 15 15 14 13 11 8 9 10 10 12 12 13 13 12 13 13 12 12 11 11 10 10 10 10 10 10 10 10 10
18 17 17 19 19 19 18 18 18 17 19 18 18 20 21 20 19 19 18 18 18 17 18 17 16 16 16 15 15 16 15 14 13 12 12 12 11 11 11 11 11 12 11 12 12 12 11 11 11 8 9 12 12 10 9 10 11 12 11 10 8 8 9 10 10 11 11 11 12 12 13 13 12 11 11 10 10 9 10 10 10 10 10 10 10
18 17 17 18 18 21 20 18 20 20 19 17 17 19 20 19 19 19 18 18 18 16 16 16 16 18 17 16 15 15 15 15 13 12 13 11 10 10 9 10 9 9 10 11 11 11 11 11 11 10 11 11 10 10 9 7 6 5 6 7 8 8 9 10 11 10 10 11 10 11 11 12 11 10 10 10 9 9 10 9 9 9 10 10 10
17 16 17 18 17 22 23 19 23 24 20 18 17 19 20 19 18 18 17 16 17 15 15 16 17 18 18 17 15 15 16 15 14 12 12 11 10 10 9 9 9 9 11 11 10 11 10 10 11 11 10 9 10 12 11 8 6 5 5 7 8 8 8 10 10 9 10 10 10 11 10 10 10 9 9 9 9 10 9 8 8 9 10 10 10
17 16 17 18 17 21 22 20 24 24 21 18 18 19 20 18 16 16 15 14 14 13 14 15 16 17 18 18 17 16 16 15 15 13 11 11 11 10 10 10 10 10 11 10 10 10 10 10 10 11 9 8 11 13 12 10 8 7 7 7 7 8 9 10 10 10 11 10 10 11 11 10 9 9 9 9 9 9 8 8 8 9 9 9 8
17 16 17 18 17 20 20 20 23 23 20 18 18 18 17 16 15 15 14 15 15 15 15 16 17 20 19 19 19 17 16 16 15 13 12 11 10 9 9 9 9 9 9 9 9 10 11 10 10 11 11 11 13 13 12 11 9 8 7 7 7 7 9 10 11 11 11 10 10 11 11 10 9 9 9 9 8 8 9 8 9 9 9 8 7
16 17 18 18 18 19 20 21 22 20 19 20 19 18 17 16 16 16 15 17 18 16 16 17 19 21 20 19 19 16 14 14 13 11 11 10 9 8 8 8 8 8 9 9 9 10 10 10 10 11 11 13 17 16 13 11 9 8 8 7 7 7 8 10 11 12 12 12 12 11 11 11 10 10 9 8 8 8 8 8 9 10 10 9 9
17 17 17 17 18 20 21 21 20 18 16 19 19 17 17 18 19 18 16 16 17 15 16 18 19 20 19 19 19 16 14 12 11 10 10 9 8 8 7 7 7 7 8 8 8 9 8 9 8 9 10 11 14 14 11 11 9 8 8 7 7 7 8 9 11 12 13 14 12 11 11 12 11 10 9 9 8 8 8 9 11 11 11 12 13
16 16 16 16 18 19 21 20 21 20 17 16 17 16 18 19 19 17 15 16 16 15 17 19 19 18 16 17 17 16 14 12 11 10 10 9 8 7 7 7 7 6 7 6 7 7 7 7 7 8 9 9 10 11 9 10 10 8 8 7 7 7 8 9 12 12 12 13 12 11 12 12 10 9 9 9 8 9 9 11 11 10 10 12 13
14 15 15 15 16 17 19 20 21 22 21 17 14 15 17 18 18 15 15 18 18 16 16 17 18 16 14 14 14 13 12 12 11 11 10 9 8 8 7 7 7 7 6 7 6 6 6 6 6 7 7 8 9 10 10 9 9 9 7 7 7 7 7 7 11 13 12 13 13 11 10 11 10 8 9 10 9 10 10 11 10 8 9 9 10
14 15 15 14 15 16 17 20 21 21 20 16 12 12 15 16 14 14 15 17 18 19 18 17 18 17 15 13 13 12 11 12 12 11 10 9 9 8 7 7 7 7 7 7 7 6 6 5 6 5 4 8 9 9 9 7 8 8 7 8 7 6 8 7 10 14 13 13 13 11 10 10 9 9 10 10 10 10 10 9 8 7 7 7 7
14 14 15 13 14 15 15 16 17 18 17 15 14 14 14 13 12 12 12 13 16 18 18 17 17 17 16 13 12 12 11 12 12 11 10 10 9 8 8 7 7 7 7 7 7 6 7 6 6 4 4 8 8 9 8 6 8 8 6 8 7 5 8 7 9 12 12 14 13 11 11 10 9 9 9 10 10 10 9 8 7 6 5 5 5
14 14 15 14 14 14 15 16 17 18 17 17 17 16 13 11 11 12 12 12 13 14 15 15 15 16 15 13 12 12 12 12 12 11 11 10 9 9 8 7 7 8 7 7 7 6 7 7 7 5 5 7 7 8 8 7 8 8 6 6 6 4 6 8 10 9 9 12 13 12 12 12 11 10 9 8 8 8 7 6 6 5 5 5 5
14 14 14 14 15 14 14 15 19 20 17 17 18 16 15 11 11 12 13 13 12 12 13 13 13 15 14 13 12 11 12 12 12 11 10 10 10 9 8 8 8 8 8 7 7 7 8 8 8 6 7 8 7 6 7 8 7 7 7 5 5 6 6 8 9 8 7 10 10 11 11 12 13 11 9 9 8 7 6 5 5 5 6 6 5
13 13 13 14 16 16 16 16 19 18 17 19 19 18 18 14 10 10 12 13 13 13 13 12 13 14 14 13 12 11 11 12 11 11 10 9 10 9 8 8 8 8 7 7 7 7 8 7 7 7 9 11 9 6 6 8 7 8 7 5 5 7 8 9 8 8 9 9 8 9 8 9 12 11 9 9 7 6 5 5 5 4 5 5 6
12 13 14 15 15 16 18 20 21 19 19 21 19 18 19 15 11 11 13 14 14 14 14 13 13 13 13 13 12 11 11 11 11 10 9 8 9 9 8 8 9 8 8 7 7 7 7 6 7 7 8 11 10 8 7 8 7 8 6 6 6 7 9 9 8 10 12 9 7 7 8 8 10 9 7 8 8 7 6 5 5 4 4 5 6
12 14 15 15 16 16 17 19 19 20 21 20 18 18 17 14 11 10 13 14 13 14 14 13 13 13 12 12 13 12 11 11 10 9 8 8 9 8 8 9 9 8 8 8 7 8 7 6 8 9 8 9 9 8 9 9 9 7 7 8 9 9 10 8 9 11 12 11 7 7 9 8 7 8 7 8 8 8 6 6 6 6 6 6 6
13 14 14 14 16 17 17 16 17 20 22 20 18 17 16 16 13 11 11 12 12 13 13 13 14 13 12 13 13 12 11 11 10 9 8 8 8 8 8 8 8 8 8 8 8 9 8 6 7 9 8 7 8 8 8 10 10 8 8 9 9 10 10 9 10 10 10 10 7 7 7 6 6 8 8 7 7 7 6 7 8 7 8 8 7
14 15 15 14 16 18 18 17 18 22 24 21 19 18 17 17 16 13 11 12 13 13 12 13 14 14 13 13 13 11 11 11 10 9 8 9 8 8 8 8 8 8 8 8 8 9 10 9 8 9 8 8 8 9 9 10 10 9 10 10 11 10 10 9 10 9 9 9 7 7 6 5 7 7 6 5 5 7 8 9 10 7 7 10 10
16 16 16 15 16 18 20 20 19 22 25 22 20 21 19 18 17 15 13 13 13 13 14 13 14 15 13 13 13 11 10 10 10 9 9 9 8 8 8 8 8 8 8 8 7 9 11 10 9 9 9 10 10 9 10 11 11 10 9 10 11 10 9 8 7 7 7 7 6 6 6 6 7 8 7 6 6 6 8 8 8 7 7 9 11
18 18 19 18 17 17 20 21 20 22 24 23 24 23 21 20 18 15 15 15 12 12 15 14 11 13 14 12 12 11 10 10 10 9 9 9 8 8 8 8 8 7 8 8 8 9 10 10 10 10 9 10 10 10 12 12 11 11 10 9 9 8 7 7 6 5 5 6 6 6 6 7 7 7 7 8 9 8 8 8 7 7 8 9 10
20 20 20 19 18 17 18 19 19 22 25 27 28 25 22 21 18 15 13 12 13 11 12 13 10 10 12 10 9 10 10 10 10 10 9 9 9 9 8 8 8 8 8 9 9 9 10 10 10 10 10 10 10 11 14 12 9 11 11 7 6 6 6 6 6 6 5 6 6 6 6 7 8 8 8 8 9 9 9 8 8 8 8 9 10
21 21 21 20 18 17 19 19 19 23 25 28 30 26 21 20 17 15 10 8 13 13 11 12 10 8 11 9 8 9 9 10 10 10 10 9 8 9 9 8 8 8 9 11 11 10 10 11 10 10 11 12 11 11 14 12 8 9 7 5 5 5 4 6 7 7 6 7 7 6 6 7 8 9 9 8 8 8 9 9 9 9 9 10 10
21 21 21 20 17 17 20 21 20 22 24 26 26 23 19 19 18 14 9 8 13 14 11 11 10 9 10 9 8 10 10 10 10 10 11 10 10 9 9 10 9 9 9 11 12 11 11 11 11 11 11 12 12 11 13 12 9 7 3 3 4 2 3 7 8 6 5 6 7 7 7 7 7 8 9 9 9 9 10 10 10 9 9 9 10
22 20 21 23 22 20 20 21 21 21 23 25 24 23 21 22 22 18 14 13 13 13 12 12 13 13 10 8 9 10 10 10 10 11 11 11 13 11 10 11 11 10 9 10 11 11 11 12 11 11 11 11 11 12 13 11 10 8 4 4 3 2 5 9 7 4 5 6 7 7 7 7 7 7 8 10 10 10 10 10 10 9 9 9 10
21 20 23 26 24 20 18 21 22 23 23 24 24 25 23 24 24 20 17 17 14 13 13 15 15 13 10 9 11 11 11 11 11 11 11 11 12 12 11 12 11 11 10 9 10 10 11 11 11 12 11 10 10 11 13 11 9 8 6 5 3 5 9 8 6 5 6 5 6 8 7 7 8 8 9 10 10 10 10 10 9 9 9 9 10
20 21 22 21 17 15 14 18 24 26 23 22 23 23 23 25 23 17 16 16 13 12 14 16 16 14 12 12 12 11 11 11 11 11 12 12 13 12 13 13 12 12 11 10 9 10 11 11 12 12 10 10 10 9 11 11 9 7 7 6 3 8 11 8 7 6 5 5 6 8 7 7 8 8 9 9 10 10 9 9 9 9 9 9 10
20 20 18 15 15 14 13 16 20 22 21 19 20 20 20 23 22 16 16 15 12 13 15 14 15 13 12 14 12 11 11 10 10 11 12 12 13 13 13 13 12 11 11 10 9 10 11 11 12 11 8 9 8 8 8 7 9 8 8 7 5 9 13 9 8 7 5 6 6 7 8 8 8 7 8 8 9 9 8 8 8 8 9 9 10
19 19 19 18 19 18 15 15 15 14 16 16 15 15 17 22 21 18 18 16 14 15 15 14 11 11 15 16 12 11 10 10 10 9 10 11 12 12 12 12 11 11 11 10 10 11 10 10 11 9 9 10 7 7 7 4 6 7 5 7 5 6 10 9 8 8 6 7 7 7 10 10 8 7 7 8 9 9 8 8 8 8 9 9 10
16 20 24 24 24 25 23 21 17 13 15 17 15 14 17 21 21 20 19 18 16 15 16 16 12 14 18 16 12 11 10 10 10 9 9 10 10 11 11 11 10 10 10 10 9 11 11 10 11 10 11 12 8 9 9 4 5 6 5 7 6 4 6 6 7 7 4 4 6 7 9 9 10 9 8 8 8 9 8 7 8 8 9 10 11
Wind_Direction
135 133 143 157 156 156 158 159 163 162 165 166 165 164 163 161 160 157 155 154 151 149 148 149 147 144 140 138 138 137 137 134 130 125 122 121 120 121 121 121 119 117 118 118 113 107 101 96 94 92 90 88 88 86 91 95 88 81 81 80 83 84 84 87 87 86 83 81 84 84 82 83 81 82 82 80 80 78 77 76 75 77 78 79 77
131 131 141 154 155 158 159 160 163 163 165 164 164 164 163 161 159 157 156 154 150 149 148 148 147 145 143 143 143 139 138 134 128 125 126 124 125 126 125 125 121 118 119 119 116 110 102 96 93 92 90 89 87 88 95 95 88 84 85 83 87 90 90 91 90 87 81 79 83 86 86 83 78 78 78 78 81 81 78 76 76 74 72 74 75
129 133 138 150 158 157 159 162 162 163 164 163 162 161 161 160 158 157 155 153 150 150 149 149 149 148 148 149 148 143 138 134 131 132 132 128 129 129 127 126 122 122 124 121 117 112 105 99 95 92 91 90 88 90 98 97 88 87 90 88 91 96 95 92 91 89 81 79 81 84 85 82 78 78 77 77 81 81 78 76 78 77 72 74 74
135 138 139 149 158 158 161 162 161 162 161 160 159 158 160 159 158 156 155 153 150 150 150 152 152 151 150 150 149 144 139 138 139 139 135 131 134 131 127 126 125 127 127 122 118 115 110 103 97 92 90 90 91 91 97 101 94 91 97 95 96 100 97 94 95 97 91 85 81 81 83 81 78 78 77 75 75 74 72 71 72 71 70 71 71
139 143 143 146 150 156 160 159 161 160 158 158 157 158 159 157 157 156 155 153 150 151 152 152 151 152 151 151 150 146 144 144 145 143 138 136 139 132 127 128 129 129 126 125 122 117 111 107 100 92 88 87 88 91 94 98 100 102 103 102 102 102 99 98 101 105 102 100 93 83 83 83 79 77 76 73 71 69 66 66 66 63 60 61 63
142 144 144 144 144 152 156 157 159 158 158 157 157 158 158 156 156 155 154 153 152 153 152 151 148 150 152 152 152 150 147 145 147 147 142 141 143 134 132 134 133 131 129 130 125 119 115 110 102 94 89 83 81 85 90 91 97 110 110 107 109 104 101 103 107 116 116 113 107 90 83 84 82 74 71 70 69 68 65 64 65 63 59 58 59
142 145 145 144 143 154 155 155 158 157 157 157 157 157 157 157 157 156 155 154 155 155 152 149 147 149 150 149 150 148 144 141 143 146 144 144 143 137 138 139 137 135 133 131 125 123 120 113 106 100 93 86 79 77 85 91 96 111 117 115 116 108 97 95 88 87 109 126 117 100 91 86 83 75 69 69 66 60 58 61 68 68 62 59 60
144 148 146 143 146 157 155 156 159 157 157 157 157 156 158 157 157 157 156 157 156 154 151 150 148 147 147 146 145 145 142 141 142 143 143 140 138 140 144 143 142 138 132 130 126 126 124 117 110 106 98 90 83 76 76 87 96 107 121 123 123 113 93 87 80 69 74 93 91 88 91 88 85 79 72 70 67 62 56 55 64 72 68 63 64
145 147 146 145 150 158 157 158 159 158 158 156 155 155 156 157 157 157 156 155 153 153 152 151 150 148 148 145 143 143 143 143 143 142 141 139 141 146 148 148 145 136 127 125 125 125 124 117 113 111 105 93 85 83 73 76 91 103 115 120 123 117 96 85 77 65 67 78 73 63 74 85 85 79 73 72 75 80 74 65 62 68 70 68 70
144 144 143 143 151 158 158 159 158 158 157 155 154 153 154 156 156 154 154 152 152 153 153 153 153 151 149 146 144 144 146 147 145 142 141 144 148 148 153 153 141 130 125 128 126 122 118 114 113 109 105 103 93 88 78 74 85 100 109 112 118 118 103 85 67 62 71 79 72 62 67 74 76 79 82 79 78 80 83 77 69 69 72 73 75
142 140 139 143 153 158 157 157 157 156 156 155 154 154 154 154 153 151 151 152 154 156 155 155 153 152 150 149 148 148 150 150 148 146 144 145 149 151 158 152 134 131 135 136 128 120 117 118 119 117 113 113 105 91 84 78 84 104 110 110 115 114 99 77 61 70 81 84 81 72 66 65 69 77 81 78 74 71 73 76 75 76 78 77 76
142 138 139 146 154 157 156 157 156 155 156 156 154 155 156 153 153 152 152 153 154 155 153 152 153 155 153 152 152 153 153 150 148 150 148 147 152 159 162 152 138 136 136 132 125 124 129 136 133 127 116 108 107 95 91 82 87 107 111 108 104 90 68 57 63 78 81 83 83 78 72 68 70 72 73 74 75 76 79 81 80 83 81 77 76
143 137 140 145 151 156 156 156 156 156 156 157 156 157 158 155 154 154 153 151 151 153 153 155 158 159 157 155 153 153 152 151 151 152 152 151 157 164 159 147 140 135 129 127 130 136 141 146 135 114 102 100 104 100 100 91 91 107 107 101 89 72 60 59 75 87 83 84 82 80 79 75 73 71 72 75 76 79 83 82 78 79 77 76 76
144 138 141 144 149 156 156 155 155 156 155 157 159 159 159 156 154 153 152 151 153 156 158 161 162 161 159 157 155 154 152 154 158 158 159 157 158 163 154 141 138 135 131 130 140 150 146 137 119 102 101 103 108 107 105 96 95 107 107 97 82 72 65 69 84 90 88 86 83 81 79 79 80 80 77 75 76 78 79 78 77 77 77 78 77
141 138 142 144 147 153 156 156 157 158 158 159 159 160 158 155 153 153 154 155 158 159 160 162 161 159 157 156 156 157 153 154 159 160 164 163 161 161 152 142 138 140 141 138 147 158 145 125 108 103 111 110 112 109 103 99 98 106 106 90 74 67 64 79 92 90 90 88 85 85 82 83 86 85 79 76 77 78 77 77 78 77 78 78 79
140 141 145 144 146 150 155 157 158 159 159 160 160 159 158 156 156 157 157 158 161 159 155 156 152 150 150 154 157 157 153 151 153 155 161 166 170 171 165 154 145 147 152 146 149 154 141 122 108 111 120 117 112 107 101 97 96 98 98 83 73 70 73 90 98 91 93 92 90 89 87 86 85 84 80 80 80 80 79 78 78 76 77 78 78
143 147 147 146 148 150 153 156 158 158 158 158 157 157 158 159 159 160 160 160 162 157 152 150 147 147 149 153 155 154 152 152 150 149 152 157 169 176 177 175 162 152 154 151 146 147 140 126 113 117 126 123 114 106 100 94 90 91 95 88 79 78 81 88 92 90 91 90 90 89 88 87 86 88 85 86 85 84 82 79 80 77 77 76 75
149 151 150 150 152 153 153 156 158 156 156 156 156 158 159 160 160 161 162 164 164 159 156 152 149 149 150 150 153 153 151 152 150 144 142 145 156 170 179 182 169 153 154 156 147 145 141 129 117 122 131 130 118 107 101 96 91 91 96 93 88 86 85 86 88 89 88 87 90 89 90 93 92 92 91 90 89 88 86 84 83 81 78 76 76
154 154 156 157 157 157 155 157 157 154 154 154 157 159 161 161 159 160 161 164 164 160 158 153 149 147 146 147 151 154 151 151 152 147 142 143 150 162 174 176 170 162 162 163 153 147 143 133 125 125 135 135 123 112 105 99 95 93 91 88 89 88 82 83 89 89 88 89 90 93 97 101 98 96 93 93 93 92 91 89 87 85 82 79 80
156 159 161 161 160 160 157 157 156 155 153 153 156 159 161 161 160 159 157 159 159 155 155 152 147 143 144 148 151 151 149 152 154 151 147 145 149 156 164 167 169 169 165 166 161 152 145 136 131 128 136 141 129 117 108 102 99 95 90 85 80 77 77 85 91 89 90 92 93 98 103 103 101 100 97 95 96 95 95 94 92 91 89 87 85
160 164 165 163 163 162 159 158 157 157 153 151 154 157 161 161 161 160 156 157 155 154 154 151 147 145 148 152 153 149 147 150 148 148 150 147 149 153 160 167 169 170 164 164 163 157 148 139 138 134 139 147 137 124 114 106 103 101 97 90 79 75 88 95 95 93 93 94 96 104 106 101 102 105 103 101 101 102 102 98 97 96 94 91 89
161 168 169 168 167 163 160 158 157 156 152 150 152 157 160 160 161 161 160 159 158 156 154 151 147 146 151 156 155 152 151 149 147 149 151 150 152 152 155 163 166 166 162 162 163 159 152 145 145 145 147 150 140 130 122 114 109 105 101 91 84 91 100 96 96 95 94 96 99 106 110 108 109 108 107 107 106 109 109 105 103 99 94 91 89
165 171 171 173 169 161 160 156 156 153 153 153 154 159 160 161 161 161 162 162 160 157 154 148 144 147 155 160 156 156 158 156 154 153 150 150 156 155 153 158 159 163 166 165 164 161 157 151 152 153 149 145 141 140 137 130 118 107 99 94 101 115 110 104 102 97 95 99 103 105 107 109 112 111 112 110 107 107 106 105 104 98 95 91 87
170 171 169 174 169 164 162 156 160 157 156 161 157 161 162 162 161 160 162 162 159 154 153 147 148 159 164 166 162 158 161 161 158 154 152 151 156 157 154 156 157 163 167 167 166 164 161 157 159 161 153 147 154 157 149 152 150 130 115 115 122 123 117 112 108 103 101 104 111 112 102 102 108 111 113 110 107 103 99 101 102 101 100 95 88
170 169 170 173 167 167 163 156 165 161 158 166 163 164 163 158 158 158 159 162 160 152 152 152 155 162 161 167 172 163 157 159 159 153 153 153 154 155 151 151 155 154 153 160 170 169 168 169 169 170 168 168 178 172 158 164 181 169 143 130 130 129 122 117 116 113 112 112 115 118 109 100 102 105 110 110 106 102 100 100 94 92 91 90 89
171 173 172 172 165 168 165 160 167 161 157 167 166 166 162 154 157 158 158 165 164 154 152 154 158 160 158 164 170 167 158 156 161 158 159 161 158 159 156 154 154 154 154 159 170 174 178 180 181 185 194 196 183 174 167 173 182 165 145 137 136 134 123 118 122 120 118 117 114 117 112 101 99 105 111 109 107 105 101 97 90 86 82 81 83
173 176 173 173 167 167 169 166 167 162 161 167 166 166 161 154 156 159 163 170 168 163 161 157 159 162 163 164 163 165 161 156 164 166 165 165 162 162 160 158 158 161 165 166 171 182 186 183 190 193 199 205 186 173 172 176 177 160 147 145 142 133 123 122 123 121 121 119 113 111 105 99 99 106 110 108 108 106 98 93 88 82 78 79 77
177 179 175 176 172 167 168 169 168 166 164 167 167 166 165 158 157 160 165 174 174 171 174 167 160 162 162 163 159 160 162 158 163 165 161 161 159 160 158 161 162 163 168 171 176 187 191 188 197 192 190 200 186 172 170 173 170 155 146 145 141 131 126 126 120 118 121 117 113 108 100 99 98 100 106 105 102 99 95 90 83 77 76 80 79
181 178 176 176 172 169 169 170 171 169 163 169 168 163 169 166 159 163 164 168 172 168 173 171 162 162 160 161 165 166 169 165 161 161 158 156 156 160 160 160 159 160 167 171 176 183 187 188 196 191 186 195 183 169 168 169 162 151 149 145 137 131 127 129 126 124 123 118 116 111 104 102 95 91 98 103 103 100 99 96 90 85 79 77 77
182 174 175 176 172 173 173 169 172 170 163 171 171 160 164 167 161 165 166 164 167 162 164 167 161 161 158 161 169 167 166 163 158 157 154 154 156 160 158 156 154 155 164 166 169 178 178 181 191 188 187 188 170 163 168 163 153 149 150 144 136 134 131 131 134 132 124 118 115 112 107 106 101 94 98 103 105 103 102 101 96 91 80 71 70
177 175 178 178 173 175 175 173 175 171 166 168 173 164 156 162 165 165 168 163 164 164 162 165 161 159 161 164 167 162 157 155 154 154 154 156 159 162 161 159 156 154 159 160 162 169 165 172 185 186 189 180 160 161 167 156 150 151 144 144 142 141 136 127 130 132 129 122 115 113 109 110 110 101 103 106 105 103 101 104 100 93 83 73 71
177 178 178 176 174 177 178 179 176 169 167 162 161 172 162 161 168 167 170 160 159 167 168 171 166 161 165 163 160 157 152 150 152 155 156 160 163 164 165 161 158 155 154 156 156 158 156 161 182 185 174 169 158 154 160 146 145 154 143 141 145 144 139 129 128 127 126 124 116 111 110 117 120 108 112 118 114 110 106 108 106 98 89 78 76
180 176 179 181 179 179 173 171 169 165 168 161 156 175 171 160 165 167 166 159 161 168 169 171 165 158 161 158 155 155 151 151 153 157 160 163 166 164 164 162 157 153 152 154 152 153 154 157 178 177 138 159 158 143 143 125 130 136 121 132 140 135 130 122 118 119 125 131 123 110 110 121 127 118 124 130 128 124 118 119 116 102 87 73 69
185 179 186 185 181 181 170 160 165 172 171 160 159 173 173 163 174 172 159 159 166 168 168 167 158 154 157 154 155 156 155 158 158 161 166 165 165 166 164 163 156 153 152 154 155 155 158 161 167 160 141 160 159 139 129 121 129 123 112 133 128 101 105 105 100 106 122 125 120 118 124 133 131 124 130 137 133 125 114 109 102 80 64 59 57
192 186 189 185 182 178 166 161 170 179 173 159 158 169 174 172 179 176 164 164 170 170 168 162 154 154 156 154 156 159 159 163 164 165 169 167 166 168 166 162 156 156 155 157 162 161 167 167 157 153 156 152 144 139 129 129 141 142 139 132 112 100 106 114 102 100 110 105 109 125 134 135 130 128 128 133 130 114 99 86 79 64 59 63 60
194 187 183 179 180 172 164 167 170 173 169 161 160 165 171 170 170 177 175 173 176 173 165 160 159 157 157 158 159 162 164 165 167 169 171 169 168 167 165 161 158 160 158 161 168 169 175 167 146 159 165 144 135 146 144 141 146 152 140 95 113 127 126 135 122 116 121 107 104 122 132 123 124 134 130 130 130 109 89 73 67 62 60 65 65
188 179 172 168 167 167 170 174 170 169 170 165 164 171 173 167 163 178 183 180 182 175 167 166 164 159 160 163 164 165 166 167 169 172 171 171 169 166 164 160 161 161 158 164 170 171 179 163 140 150 154 142 144 155 152 149 145 150 134 98 126 141 133 140 127 121 127 119 109 119 130 116 115 134 134 131 132 113 98 83 70 58 60 67 69
175 167 163 160 159 166 172 173 170 173 176 170 168 175 175 165 164 188 194 187 183 176 171 171 165 163 165 166 169 168 168 170 172 172 170 170 169 165 164 161 162 160 157 167 170 165 173 172 151 143 147 152 158 158 152 152 148 145 134 117 124 127 129 138 126 125 126 122 125 122 121 117 115 123 121 124 124 115 105 87 77 59 60 76 74
165 157 158 158 160 168 170 168 169 175 178 174 171 174 174 172 174 192 201 193 184 177 176 175 168 167 171 170 170 170 169 171 174 173 171 174 170 166 167 160 159 162 161 167 170 163 164 171 160 149 158 164 156 155 154 148 142 137 131 124 123 122 126 134 131 130 123 120 128 122 118 125 119 106 105 122 125 117 105 87 94 80 59 70 79
164 153 154 159 163 169 170 169 173 177 177 175 173 175 178 183 183 183 194 198 189 181 180 178 172 173 176 173 170 170 172 172 175 178 177 176 169 165 170 163 161 165 164 168 172 168 164 165 162 158 162 158 150 156 157 148 140 132 126 123 126 130 126 124 124 124 123 127 133 131 134 137 125 115 114 129 122 110 102 92 103 107 72 68 76
171 157 153 165 173 172 173 173 175 179 180 180 180 179 182 186 184 179 186 197 190 180 184 183 177 178 177 172 172 171 172 172 174 181 180 176 168 168 175 170 166 166 163 169 173 168 165 163 161 163 163 158 154 157 155 149 143 135 128 124 125 127 122 115 118 125 129 134 138 139 145 144 133 133 130 125 116 105 104 98 99 114 102 82 75
179 167 160 174 185 180 179 178 178 179 181 184 184 185 188 187 185 181 184 191 184 179 190 191 181 179 174 169 171 170 170 173 175 179 179 178 172 172 182 178 170 167 161 166 172 168 165 166 166 165 166 162 157 158 157 153 153 151 144 137 129 120 123 125 129 139 138 138 142 139 147 152 140 136 133 125 123 115 106 104 96 97 100 93 83
183 172 165 179 189 185 184 181 180 181 183 187 187 187 189 189 189 185 185 185 175 177 191 188 183 180 172 169 167 165 173 179 181 179 178 184 177 171 183 185 175 171 165 163 170 173 170 173 174 169 168 165 162 166 166 162 160 157 153 151 143 130 132 137 134 134 136 142 141 134 144 151 138 131 128 115 111 107 102 101 98 93 90 92 91
187 175 168 179 188 188 189 188 186 187 188 190 191 190 185 185 188 188 192 184 170 176 181 173 180 183 170 176 174 168 181 188 188 185 182 186 180 174 181 188 184 177 173 170 173 181 180 179 180 176 174 169 165 168 172 172 167 163 159 144 143 147 146 142 137 133 142 145 134 124 127 133 128 123 118 109 103 101 102 101 96 93 90 90 93
191 179 169 176 186 190 192 194 194 195 194 192 191 188 181 178 182 181 174 166 169 176 173 165 181 185 175 186 184 175 186 188 188 191 188 186 185 181 181 186 185 179 180 179 180 187 186 183 181 181 185 178 167 165 174 182 180 182 178 126 141 167 143 142 141 136 145 140 125 118 117 119 123 121 118 116 113 107 104 104 98 95 95 93 96
189 178 170 177 184 185 188 192 196 201 197 192 190 185 179 178 182 177 159 156 169 175 175 175 181 182 181 196 189 180 184 179 182 191 189 189 190 185 182 185 183 181 187 186 187 190 189 189 184 184 192 186 174 169 176 185 177 175 170 143 152 150 145 154 153 131 129 129 118 118 122 121 122 121 118 112 110 109 106 106 102 100 98 94 95
179 172 176 185 185 178 183 189 198 207 198 191 192 187 180 180 183 179 166 164 170 174 180 180 179 182 186 197 194 184 182 177 177 182 184 189 189 183 183 185 184 185 188 189 190 189 192 194 186 188 194 188 185 177 175 179 171 166 164 156 140 141 152 157 150 137 138 136 119 119 118 108 103 104 110 111 108 108 108 110 109 104 102 99 99
175 173 178 187 185 178 190 197 201 205 197 190 193 185 178 179 179 175 168 167 169 172 176 177 180 186 190 200 199 185 181 180 176 175 181 187 185 183 185 186 188 189 187 190 191 190 197 196 187 193 194 187 195 189 179 177 171 171 171 171 169 161 164 157 151 158 148 141 137 135 125 102 95 94 101 111 116 115 114 116 114 107 104 101 102
178 172 164 172 181 185 201 209 208 202 190 190 193 181 173 177 174 167 165 166 172 172 172 179 182 179 192 210 203 181 175 174 175 177 180 184 183 183 185 186 191 193 190 191 191 192 199 192 186 194 191 185 195 193 187 174 172 189 181 178 205 176 165 159 163 176 168 160 157 146 144 134 122 111 107 114 120 120 117 115 114 111 108 104 104
177 166 162 169 176 187 199 206 217 209 181 181 188 175 172 179 175 167 164 167 173 172 170 178 177 176 197 209 194 173 169 166 170 176 178 181 182 182 185 188 191 194 194 193 189 191 196 187 183 193 191 185 191 192 193 169 169 195 177 174 217 189 163 160 167 179 192 188 167 150 159 156 139 130 132 134 132 130 125 121 119 115 113 112 107
166 170 180 176 170 182 191 188 197 204 178 174 180 170 172 182 177 168 169 170 171 176 175 171 180 198 202 197 180 170 166 162 165 170 177 181 183 183 187 190 190 193 196 194 191 191 195 191 186 195 194 186 195 199 196 188 175 193 189 183 212 215 183 167 153 168 200 190 160 154 164 158 143 142 148 148 145 142 135 131 125 116 115 115 109